AirNav   Air Wisconsin pilot careers
 
 1067 users online  

4F7 Kizer Field Airport
Prescott, Arkansas, USA

GOING TO PRESCOTT?


FAA INFORMATION EFFECTIVE 13 SEPTEMBER 2018

Location

FAA Identifier: 4F7
Lat/Long: 33-48-14.0000N / 093-21-43.8000W
33-48.233333N / 093-21.730000W
33.8038889 / -93.3621667
(estimated)
Elevation: 318.8 ft. / 97.2 m (surveyed)
Variation: 03E (2005)
From city: 1 mile E of PRESCOTT, AR
Time zone: UTC -5 (UTC -6 during Standard Time)
Zip code: 71857

Airport Operations

Airport use: Open to the public
Activation date: 09/1967
Control tower: no
ARTCC: FORT WORTH CENTER
FSS: JONESBORO FLIGHT SERVICE STATION
NOTAMs facility: JBR (NOTAM-D service available)
Attendance: UNATNDD
Wind indicator: lighted
Segmented circle: yes
Beacon: white-green (lighted land airport)
Operates sunset to sunrise.

Airport Communications

CTAF: 122.9

Nearby radio navigation aids

VOR radial/distance  VOR name  Freq  Var
TXKr057/39.5TEXARKANA VORTAC116.3007E

 
NDB name  Hdg/Dist  Freq  Var  ID
HOPE067/15.336203EHPC .... .--. -.-.

Airport Services

Parking: tiedowns
Airframe service: NONE
Powerplant service: NONE
Bottled oxygen: NONE
Bulk oxygen: NONE

Runway Information

Runway 18/36

Dimensions: 3464 x 50 ft. / 1056 x 15 m
Surface: asphalt, in good condition
Weight bearing capacity: 
Single wheel: 12.0
Runway edge lights: medium intensity
RUNWAY 18  RUNWAY 36
Latitude: 33-48.518000N33-47.947000N
Longitude: 093-21.721833W093-21.739000W
Elevation: 318.8 ft.308.1 ft.
Gradient: 0.1%0.1%
Traffic pattern: leftleft
Runway heading: 179 magnetic, 182 true359 magnetic, 002 true
Markings: basic, in good conditionbasic, in good condition
Touchdown point: yes, no lightsyes, no lights
Obstructions: 3 ft. road, 260 ft. from runway, 20:1 slope to clear42 ft. trees, 375 ft. from runway, 250 ft. left of centerline, 4:1 slope to clear

Airport Ownership and Management from official FAA records

Ownership: Publicly-owned
Owner: CITY OF PRESCOTT
PO BOX 676
PRESCOTT, AR 71857
Phone 870-887-2210
Manager: TERRY OLIVER
PO BOX 676
PRESCOTT, AR 71857
Phone 870-887-2210
MAYOR OF PRESCOTT.

Airport Operational Statistics

Aircraft based on the field: 3
Single engine airplanes: 3
    
Aircraft operations: avg 38/week *
75% local general aviation
25% transient general aviation
* for 12-month period ending 31 July 2015

Additional Remarks

ARPT GATE LOCKED FM 2100-0500; CALL POLICE FOR ACCESS 870-887-2676.
RY 36 APCH - GROUND SLOPE DOWNWARD 6 FT IN 100 FT; 100 FT FROM RY END.

Instrument Procedures

There are no published instrument procedures at 4F7.

Some nearby airports with instrument procedures:

M18 - Hope Municipal Airport (16 nm W)
KADF - Dexter B Florence Memorial Field Airport (23 nm NE)
M77 - Howard County Airport (26 nm NW)
KCDH - Harrell Field Airport (32 nm E)
KAGO - Ralph C Weiser Field Airport (35 nm S)
 
Loc | Ops | Rwys | IFR | FBO | Links
Com | Nav | Svcs | Stats | Notes


 
Area around 4F7 (Kizer Field Airport)
 
Road maps at: MapQuest Bing Google
 
Aerial photo
WARNING: Photo may not be current or correct
Aerial photo of 4F7 (Kizer Field Airport)
Photo courtesy of the Arkansas Department of Aeronautics
Taken in the Spring of 2007

Do you have a better or more recent aerial photo of Kizer Field Airport that you would like to share? If so, please send us your photo.

 
Sectional chart

 
Airport distance calculator
Flying to Kizer Field Airport? Find the distance to fly.

From to 4F7

Sunrise and sunset
Times for 20-Sep-2018
 Local
(UTC-5)
 Zulu
(UTC)
Morning civil twilight06:3611:36
Sunrise07:0112:01
Sunset19:1300:13
Evening civil twilight19:3800:38

Current date and time
Zulu (UTC)  20-Sep-2018 12:58:49
Local (UTC-5)  20-Sep-2018 07:58:49
 
METAR
KADF 
23nm NE 
201156Z AUTO 00000KT 6SM BR CLR 21/21 A2998 RMK AO2 SLP154 T02110211 10239 20206 51010 TSNO
KCDH 
32nm E 
201235Z AUTO 00000KT 2 1/2SM BR CLR 23/21 A2999 RMK AO2
KTXK 
38nm SW 
201253Z AUTO 22/21 A2999 RMK AO2 SLP151 T02220206 PWINO $
KHOT 
43nm N 
201253Z AUTO 08005KT 8SM CLR 24/23 A3000 RMK AO2 SLP150 T02440233
KELD 
45nm SE 
201253Z AUTO 00000KT 10SM CLR 23/23 A3001 RMK AO2 SLP157 T02280228
KMWT 
46nm N 
201253Z AUTO 00000KT 2 1/2SM BR CLR 22/22 A2998 RMK AO2 SLP142 T02170217
TAF
KADF 
23nm NE 
201130Z 2012/2112 00000KT P6SM SKC TEMPO 2012/2014 3SM BR FM201500 18007KT P6SM SCT050 FM210000 16003KT P6SM BKN250
NOTAMs
Click for the latest NOTAMs
NOTAMs are issued by the DoD/FAA and will open in a separate window not controlled by AirNav.

 

 
 

Would you like to see your business listed on this page?

 If your business provides an interesting product or service to pilots, flight crews, aircraft, or users of the Kizer Field Airport, you should consider listing it here.  To start the listing process, click on the button below
 
Add a business
 

Other Pages about Kizer Field Airport

Update a link
 
Copyright © AirNav, LLC. All rights reserved. Privacy Policy  Contact